SHT87M EGBB-EGPH

Flight info

Callsign SHT87M
Flight time 0h 52m
Altitude 28000
Route LUVUM DCT TNT N57 POL UN601 RIBEL DCT INPIP
Aircraft B738/M-SDE2E3FGHIRWXY/LB1

Departure

Time 2026-04-25 18:56
Airport Birmingham Airport (EGBB)

Arrival

Time 2026-04-25 19:48
Airport Edinburgh Airport (EGPH)
Time Latitude Longitude Altitude Speed Heading
2026-04-25 18:33 52.45202 -1.73695 341 ft 0 kts 326°
2026-04-25 18:43 52.45202 -1.73694 340 ft 1 kts 326°
2026-04-25 18:43 52.45188 -1.73679 340 ft 2 kts 326°
2026-04-25 18:43 52.45176 -1.73665 340 ft 2 kts 326°
2026-04-25 18:43 52.45165 -1.73654 340 ft 0 kts 326°
2026-04-25 18:44 52.45156 -1.73642 340 ft 2 kts 301°
2026-04-25 18:44 52.45151 -1.73618 340 ft 2 kts 270°
2026-04-25 18:44 52.45154 -1.73595 340 ft 1 kts 242°
2026-04-25 18:44 52.45158 -1.73586 340 ft 1 kts 233°
2026-04-25 18:45 52.45159 -1.73583 340 ft 0 kts 235°
2026-04-25 18:47 52.45158 -1.73585 340 ft 2 kts 234°
2026-04-25 18:47 52.45133 -1.73639 340 ft 6 kts 233°
2026-04-25 18:48 52.45109 -1.73692 340 ft 0 kts 235°
2026-04-25 18:48 52.45107 -1.73699 340 ft 2 kts 242°
2026-04-25 18:48 52.45103 -1.73757 341 ft 8 kts 289°
2026-04-25 18:48 52.45160 -1.73837 340 ft 13 kts 326°
2026-04-25 18:49 52.45255 -1.73945 340 ft 18 kts 324°
2026-04-25 18:49 52.45328 -1.74101 340 ft 17 kts 296°
2026-04-25 18:49 52.45380 -1.74276 340 ft 16 kts 295°
2026-04-25 18:49 52.45432 -1.74448 340 ft 16 kts 298°
2026-04-25 18:50 52.45496 -1.74598 340 ft 16 kts 313°
2026-04-25 18:50 52.45587 -1.74701 340 ft 15 kts 328°
2026-04-25 18:50 52.45675 -1.74799 340 ft 15 kts 323°
2026-04-25 18:50 52.45760 -1.74898 340 ft 14 kts 326°
2026-04-25 18:51 52.45845 -1.74989 340 ft 14 kts 326°
2026-04-25 18:51 52.45899 -1.75048 340 ft 14 kts 326°
2026-04-25 18:51 52.46006 -1.75166 340 ft 13 kts 325°
2026-04-25 18:51 52.46083 -1.75253 340 ft 13 kts 325°
2026-04-25 18:52 52.46158 -1.75337 341 ft 12 kts 325°
2026-04-25 18:52 52.46231 -1.75418 340 ft 12 kts 326°
2026-04-25 18:52 52.46302 -1.75496 340 ft 12 kts 326°
2026-04-25 18:52 52.46372 -1.75571 340 ft 11 kts 327°
2026-04-25 18:53 52.46439 -1.75643 340 ft 11 kts 327°
2026-04-25 18:53 52.46504 -1.75715 340 ft 11 kts 324°
2026-04-25 18:53 52.46566 -1.75788 340 ft 10 kts 324°
2026-04-25 18:53 52.46623 -1.75864 341 ft 9 kts 304°
2026-04-25 18:54 52.46624 -1.75931 341 ft 0 kts 245°
2026-04-25 18:54 52.46616 -1.75958 341 ft 7 kts 242°
2026-04-25 18:55 52.46562 -1.76068 341 ft 13 kts 204°
2026-04-25 18:55 52.46464 -1.76001 341 ft 21 kts 145°
2026-04-25 18:55 52.46121 -1.75622 341 ft 103 kts 145°
2026-04-25 18:55 52.45307 -1.74711 438 ft 168 kts 144°
2026-04-25 18:56 52.44342 -1.73581 1225 ft 184 kts 145°
2026-04-25 18:56 52.43248 -1.72405 2126 ft 196 kts 146°
2026-04-25 18:56 52.42102 -1.71169 2911 ft 204 kts 143°
2026-04-25 18:56 52.41071 -1.69589 3723 ft 208 kts 122°
2026-04-25 18:57 52.40550 -1.67413 4515 ft 213 kts 96°
2026-04-25 18:57 52.40611 -1.64998 5228 ft 221 kts 78°
2026-04-25 18:57 52.41153 -1.62617 5771 ft 227 kts 52°
2026-04-25 18:57 52.41891 -1.61428 5976 ft 229 kts 32°
2026-04-25 18:58 52.43882 -1.60232 6027 ft 228 kts 12°
2026-04-25 18:58 52.47020 -1.59618 6010 ft 242 kts 357°
2026-04-25 18:58 52.48812 -1.59813 5990 ft 265 kts 355°
2026-04-25 18:59 52.52456 -1.60865 6021 ft 270 kts 340°
2026-04-25 18:59 52.55878 -1.63381 5999 ft 270 kts 335°
2026-04-25 19:00 52.59274 -1.65927 5998 ft 268 kts 336°
2026-04-25 19:00 52.60978 -1.67159 6000 ft 269 kts 336°
2026-04-25 19:01 52.64420 -1.69629 5997 ft 269 kts 336°
2026-04-25 19:01 52.66122 -1.70853 6006 ft 269 kts 336°
2026-04-25 19:01 52.67832 -1.72086 6000 ft 269 kts 336°
2026-04-25 19:01 52.69554 -1.73328 6005 ft 270 kts 336°
2026-04-25 19:02 52.73164 -1.74589 6019 ft 269 kts
2026-04-25 19:02 52.74998 -1.74140 5993 ft 269 kts 10°
2026-04-25 19:02 52.76876 -1.73586 6153 ft 284 kts
2026-04-25 19:03 52.80051 -1.72764 8061 ft 278 kts
2026-04-25 19:03 52.82578 -1.72179 9320 ft 282 kts
2026-04-25 19:03 52.84517 -1.71743 10177 ft 286 kts
2026-04-25 19:04 52.88596 -1.70828 11436 ft 312 kts
2026-04-25 19:04 52.90796 -1.70331 11939 ft 328 kts
2026-04-25 19:05 52.95452 -1.69274 13285 ft 347 kts
2026-04-25 19:05 53.00232 -1.68183 14957 ft 355 kts
2026-04-25 19:05 53.02687 -1.67700 15736 ft 358 kts
2026-04-25 19:06 53.05179 -1.67640 16135 ft 360 kts 354°
2026-04-25 19:06 53.10005 -1.69587 16233 ft 358 kts 339°
2026-04-25 19:06 53.12381 -1.71069 16780 ft 366 kts 337°
2026-04-25 19:07 53.17051 -1.74123 18453 ft 366 kts 337°
2026-04-25 19:07 53.19442 -1.75662 19158 ft 370 kts 338°
2026-04-25 19:08 53.24794 -1.79034 20609 ft 378 kts 338°
2026-04-25 19:08 53.27249 -1.80567 21240 ft 382 kts 338°
2026-04-25 19:09 53.34781 -1.85271 23075 ft 392 kts 338°
2026-04-25 19:09 53.36485 -1.86339 23453 ft 394 kts 338°
2026-04-25 19:09 53.42515 -1.90123 24748 ft 402 kts 338°
2026-04-25 19:10 53.45120 -1.91762 25274 ft 406 kts 338°
2026-04-25 19:10 53.47752 -1.93421 25802 ft 409 kts 338°
2026-04-25 19:10 53.50400 -1.95090 26571 ft 405 kts 338°
2026-04-25 19:10 53.53025 -1.96747 27319 ft 402 kts 338°
2026-04-25 19:11 53.55597 -1.98372 27939 ft 401 kts 338°
2026-04-25 19:11 53.58223 -2.00035 28212 ft 405 kts 338°
2026-04-25 19:11 53.60826 -2.01686 28214 ft 403 kts 338°
2026-04-25 19:12 53.66037 -2.04995 28217 ft 402 kts 338°
2026-04-25 19:12 53.71298 -2.08347 28225 ft 410 kts 338°
2026-04-25 19:12 53.73980 -2.10063 28225 ft 422 kts 338°
2026-04-25 19:13 53.76742 -2.11860 28227 ft 432 kts 337°
2026-04-25 19:13 53.79558 -2.13754 28228 ft 443 kts 337°
2026-04-25 19:13 53.82438 -2.15724 28230 ft 454 kts 336°
2026-04-25 19:14 53.88381 -2.19821 28230 ft 463 kts 336°
2026-04-25 19:14 53.94302 -2.23902 28228 ft 462 kts 337°
2026-04-25 19:15 54.00216 -2.27979 28234 ft 463 kts 337°
2026-04-25 19:15 54.06184 -2.32098 28224 ft 463 kts 337°
2026-04-25 19:16 54.12131 -2.36213 28224 ft 464 kts 337°
2026-04-25 19:16 54.18113 -2.40364 28218 ft 465 kts 336°
2026-04-25 19:17 54.24090 -2.44524 28217 ft 466 kts 336°
2026-04-25 19:17 54.30096 -2.48719 28216 ft 466 kts 336°
2026-04-25 19:18 54.36078 -2.52909 28222 ft 466 kts 337°
2026-04-25 19:18 54.42053 -2.57108 28217 ft 466 kts 337°
2026-04-25 19:19 54.48016 -2.61310 28045 ft 467 kts 336°
2026-04-25 19:19 54.51024 -2.63435 27882 ft 466 kts 336°
2026-04-25 19:19 54.54039 -2.65570 27725 ft 466 kts 336°
2026-04-25 19:19 54.55038 -2.66277 27671 ft 466 kts 336°
2026-04-25 19:20 54.60010 -2.69806 27406 ft 468 kts 336°
2026-04-25 19:20 54.63021 -2.71948 27246 ft 468 kts 336°
2026-04-25 19:20 54.66003 -2.74072 27088 ft 468 kts 336°
2026-04-25 19:20 54.69012 -2.76218 26927 ft 469 kts 336°
2026-04-25 19:21 54.72038 -2.78380 26768 ft 469 kts 336°
2026-04-25 19:21 54.78058 -2.82692 26323 ft 469 kts 336°
2026-04-25 19:21 54.81067 -2.84852 26007 ft 470 kts 336°
2026-04-25 19:22 54.84095 -2.87030 25547 ft 469 kts 336°
2026-04-25 19:22 54.87080 -2.89178 25020 ft 464 kts 336°
2026-04-25 19:22 54.92926 -2.93396 23987 ft 455 kts 336°
2026-04-25 19:23 54.95845 -2.95508 23474 ft 452 kts 336°
2026-04-25 19:23 55.01579 -2.99667 22468 ft 445 kts 336°
2026-04-25 19:23 55.04423 -3.01735 21968 ft 443 kts 336°
2026-04-25 19:24 55.07225 -3.03777 21407 ft 441 kts 336°
2026-04-25 19:24 55.10016 -3.05813 20794 ft 437 kts 336°
2026-04-25 19:24 55.15579 -3.09879 19535 ft 425 kts 336°
2026-04-25 19:25 55.20937 -3.13809 18280 ft 414 kts 336°
2026-04-25 19:25 55.23562 -3.15741 17675 ft 409 kts 336°
2026-04-25 19:25 55.26186 -3.17666 17049 ft 404 kts 336°
2026-04-25 19:26 55.28828 -3.19311 16415 ft 400 kts 343°
2026-04-25 19:26 55.31516 -3.20145 15813 ft 397 kts 355°
2026-04-25 19:26 55.34277 -3.20108 15199 ft 394 kts
2026-04-25 19:26 55.36960 -3.19728 14585 ft 390 kts
2026-04-25 19:27 55.39634 -3.19220 13956 ft 386 kts
2026-04-25 19:27 55.40548 -3.19038 13742 ft 385 kts
2026-04-25 19:27 55.44915 -3.18191 12700 ft 379 kts
2026-04-25 19:27 55.47492 -3.17726 12087 ft 375 kts
2026-04-25 19:28 55.50098 -3.17281 11479 ft 371 kts
2026-04-25 19:28 55.52635 -3.16866 10960 ft 364 kts
2026-04-25 19:28 55.55151 -3.16465 10448 ft 358 kts
2026-04-25 19:28 55.57582 -3.16082 9959 ft 352 kts
2026-04-25 19:29 55.60010 -3.15701 9515 ft 345 kts
2026-04-25 19:29 55.62359 -3.15331 9140 ft 337 kts
2026-04-25 19:29 55.64677 -3.14966 8759 ft 330 kts
2026-04-25 19:29 55.66909 -3.14613 8385 ft 323 kts
2026-04-25 19:30 55.69133 -3.14262 8053 ft 315 kts
2026-04-25 19:30 55.71272 -3.14319 7695 ft 306 kts 348°
2026-04-25 19:30 55.73188 -3.15713 7358 ft 298 kts 324°
2026-04-25 19:30 55.74569 -3.18341 7065 ft 288 kts 299°
2026-04-25 19:31 55.75153 -3.21626 6813 ft 279 kts 275°
2026-04-25 19:31 55.75125 -3.25038 6562 ft 271 kts 266°
2026-04-25 19:31 55.74956 -3.28338 6302 ft 265 kts 265°
2026-04-25 19:31 55.74771 -3.31593 6050 ft 264 kts 265°
2026-04-25 19:32 55.74589 -3.34806 5794 ft 265 kts 265°
2026-04-25 19:32 55.74406 -3.38045 5533 ft 265 kts 265°
2026-04-25 19:32 55.74226 -3.41292 5274 ft 264 kts 265°
2026-04-25 19:32 55.74166 -3.42365 5192 ft 264 kts 265°
2026-04-25 19:33 55.74669 -3.47567 4762 ft 259 kts 301°
2026-04-25 19:33 55.75712 -3.50118 4633 ft 248 kts 309°
2026-04-25 19:33 55.76794 -3.52453 4499 ft 239 kts 310°
2026-04-25 19:33 55.77841 -3.54685 4369 ft 230 kts 310°
2026-04-25 19:34 55.78838 -3.56815 4269 ft 220 kts 310°
2026-04-25 19:34 55.79796 -3.58865 4134 ft 210 kts 310°
2026-04-25 19:34 55.80707 -3.60805 3987 ft 202 kts 312°
2026-04-25 19:34 55.81822 -3.62165 3957 ft 191 kts 346°
2026-04-25 19:35 55.83136 -3.62109 3973 ft 192 kts 17°
2026-04-25 19:35 55.84387 -3.61369 3968 ft 191 kts 20°
2026-04-25 19:35 55.85644 -3.60587 3914 ft 193 kts 20°
2026-04-25 19:35 55.86939 -3.59765 3487 ft 200 kts 25°
2026-04-25 19:36 55.88020 -3.58220 3085 ft 201 kts 56°
2026-04-25 19:36 55.88587 -3.56094 2958 ft 181 kts 67°
2026-04-25 19:36 55.89180 -3.54140 2988 ft 181 kts 58°
2026-04-25 19:36 55.89901 -3.52136 2625 ft 204 kts 60°
2026-04-25 19:37 55.90625 -3.50035 2791 ft 191 kts 60°
2026-04-25 19:37 55.91346 -3.47933 2856 ft 219 kts 61°
2026-04-25 19:37 55.92234 -3.45592 3013 ft 246 kts 55°
2026-04-25 19:37 55.92989 -3.42775 2980 ft 247 kts 79°
2026-04-25 19:38 55.92906 -3.39860 2978 ft 229 kts 110°
2026-04-25 19:38 55.92019 -3.37612 2997 ft 224 kts 142°
2026-04-25 19:38 55.90592 -3.36565 2992 ft 227 kts 175°
2026-04-25 19:38 55.89065 -3.37028 2988 ft 229 kts 206°
2026-04-25 19:39 55.87782 -3.38755 2994 ft 231 kts 223°
2026-04-25 19:39 55.86652 -3.40753 2981 ft 230 kts 225°
2026-04-25 19:39 55.85529 -3.42775 2982 ft 230 kts 225°
2026-04-25 19:39 55.84385 -3.44834 2977 ft 230 kts 225°
2026-04-25 19:40 55.83255 -3.46864 2976 ft 231 kts 225°
2026-04-25 19:40 55.82136 -3.48879 2974 ft 231 kts 225°
2026-04-25 19:40 55.81002 -3.50919 2972 ft 231 kts 225°
2026-04-25 19:40 55.79872 -3.52953 2973 ft 231 kts 225°
2026-04-25 19:41 55.78756 -3.54964 2968 ft 231 kts 225°
2026-04-25 19:41 55.77624 -3.57008 2968 ft 231 kts 225°
2026-04-25 19:41 55.76590 -3.59188 2964 ft 232 kts 242°
2026-04-25 19:41 55.76366 -3.60059 2965 ft 232 kts 252°
2026-04-25 19:42 55.76673 -3.64682 2971 ft 233 kts 306°
2026-04-25 19:42 55.77875 -3.66548 2968 ft 230 kts 337°
2026-04-25 19:42 55.79419 -3.67002 2968 ft 228 kts
2026-04-25 19:42 55.80948 -3.66252 2973 ft 227 kts 20°
2026-04-25 19:43 55.82427 -3.65362 2970 ft 226 kts 19°
2026-04-25 19:43 55.83922 -3.64480 2977 ft 226 kts 19°
2026-04-25 19:43 55.85428 -3.63594 2973 ft 226 kts 21°
2026-04-25 19:43 55.86737 -3.62168 2970 ft 216 kts 48°
2026-04-25 19:44 55.87413 -3.60030 2947 ft 187 kts 72°
2026-04-25 19:44 55.87884 -3.58010 2749 ft 171 kts 62°
2026-04-25 19:44 55.88490 -3.56261 2480 ft 161 kts 58°
2026-04-25 19:44 55.89070 -3.54622 2278 ft 155 kts 60°
2026-04-25 19:45 55.89626 -3.52990 2075 ft 151 kts 60°
2026-04-25 19:45 55.90170 -3.51398 1905 ft 150 kts 60°
2026-04-25 19:45 55.90714 -3.49809 1631 ft 146 kts 60°
2026-04-25 19:45 55.91227 -3.48311 1436 ft 139 kts 60°
2026-04-25 19:46 55.91735 -3.46821 1251 ft 142 kts 59°
2026-04-25 19:46 55.92244 -3.45330 1053 ft 139 kts 59°
2026-04-25 19:46 55.92742 -3.43863 867 ft 139 kts 59°
2026-04-25 19:46 55.93256 -3.42405 670 ft 137 kts 58°
2026-04-25 19:47 55.93755 -3.40985 464 ft 133 kts 58°
2026-04-25 19:47 55.94214 -3.39604 307 ft 124 kts 60°
2026-04-25 19:47 55.94658 -3.38274 165 ft 124 kts 58°
2026-04-25 19:47 55.95044 -3.37116 142 ft 78 kts 58°
2026-04-25 19:48 55.95213 -3.36623 142 ft 28 kts 56°
2026-04-25 19:48 55.95237 -3.36409 142 ft 13 kts 131°
2026-04-25 19:48 55.95192 -3.36343 142 ft 2 kts 144°
2026-04-25 19:48 55.95177 -3.36326 142 ft 5 kts 148°
2026-04-25 19:49 55.95169 -3.36318 142 ft 0 kts 150°
2026-04-25 19:49 55.95128 -3.36329 142 ft 4 kts 215°
2026-04-25 19:49 55.95076 -3.36390 142 ft 12 kts 185°
2026-04-25 19:50 55.95010 -3.36423 142 ft 9 kts 230°
2026-04-25 19:50 55.94971 -3.36530 142 ft 10 kts 238°
2026-04-25 19:50 55.94934 -3.36643 142 ft 9 kts 238°
2026-04-25 19:51 55.94880 -3.36639 142 ft 9 kts 140°
2026-04-25 19:51 55.94860 -3.36612 142 ft 0 kts 143°